Regional Weather Roundup
Issued by NWS Wakefield, VA

Home | Current Version | Previous Version | Graphics & Text | Print | Product List | Glossary On
Versions: 1 2 3 4 5 6 7 8 9 10 11 12 13 14 15 16 17 18 19 20 21 22 23 24 25 26 27 28 29 30 31 32 33 34 35 36 37 38 39 40 41 42 43 44 45 46 47 48 49 50
000
ASUS41 KAKQ 291510
RWRAKQ

REGIONAL WEATHER ROUNDUP
NATIONAL WEATHER SERVICE WAKEFIELD VA
1100 AM EDT TUE JUL 29 2014

Note: "fair" indicates few or no clouds below 12,000 feet with no
significant weather and/or obstructions to visibility. * = Denotes
station may not report precipitation (e.g., rain,snow,etc.),
thunder or fog.

VAZ042-051-052>054-056-291600-
NORTHERN VIRGINIA

CITY           SKY/WX    TMP DP  RH WIND       PRES   REMARKS
WASH NATIONAL  MOSUNNY   72  48  42 W14G21    29.94F
DULLES         PTSUNNY   68  48  48 NW12      29.95F
FORT BELVOIR     N/A    N/A N/A N/A MISG        N/A
QUANTICO       SUNNY     71  50  47 NW13      29.96F
FREDERICKSBRG* SUNNY     71  53  52 W7        29.95S
STAFFORD*      SUNNY     70  52  53 W8        30.00S
WARRENTON      SUNNY     71  59  66 W7        29.96S
CULPEPER*      SUNNY    N/A N/A N/A W8        29.97S
MANASSAS*      SUNNY     70  52  52 NW12G18   29.96S
LEESBURG*      MOSUNNY   68  54  60 NW7G20    29.97S
WINCHESTER     SUNNY     64  46  52 NW12      29.97F
$$

VAZ048-049-060>072-079>083-291600-
CENTRAL AND SOUTH CENTRAL VIRGINIA...AND NORTH CENTRAL NORTH CAROLINA

CITY           SKY/WX    TMP DP  RH WIND       PRES   REMARKS
RICHMOND       SUNNY     76  51  41 N8        29.95F
CHESTERFIELD*  SUNNY     73  46  38 N10       29.97F
HANOVER        SUNNY     73  53  49 W7        29.97S
TAPPAHANNOCK*  SUNNY     72  49  43 W7        29.96R
CHARLOTTSVILLE MOSUNNY   70  54  56 W7        29.97F
ORANGE*        SUNNY     70  54  56 SW8       29.98S
LOUISA*        SUNNY     72  54  53 W6        29.96S
FARMVILLE*     MOSUNNY   73  50  43 NE7       29.95F
SOUTH HILL*    SUNNY     73  55  53 N7        30.02R
ROANOKE RAPIDS NOT AVBL
RALEIGH        MOSUNNY   75  58  55 NE6       29.97R
$$

VAZ088>098-291600-
SOUTHEAST VIRGINIA

CITY           SKY/WX    TMP DP  RH WIND       PRES   REMARKS
NORFOLK        MOSUNNY   75  61  61 N14       29.92R
VIRGINIA BEACH PTSUNNY   73  62  68 NW12      29.92R
NORFOLK NAVAL  MOSUNNY   76  61  59 N10       29.94R
WEST POINT*    SUNNY     74  55  50 N7        29.95S
NEWPORT NEWS   SUNNY     78  60  53 N9        29.93S
LANGLEY AFB    SUNNY     74  61  63 NW9       29.92S
FORT EUSTIS    SUNNY     73  59  61 NW7       29.92S
WILLIAMSBURG*  SUNNY     77  61  57 N8        29.95R
FRANKLIN*      SUNNY     73  59  60 N6        29.94S
WAKEFIELD      SUNNY     74  58  57 VRB7      29.94S
$$

VAZ020-022-025-037-045-291600-
WESTERN AND SOUTHWEST VIRGINIA

CITY           SKY/WX    TMP DP  RH WIND       PRES   REMARKS
STAUNTON*      CLOUDY    64  51  63 NW5       30.03S
HOT SPRINGS VA CLOUDY    54  50  86 W7        30.07S
LYNCHBURG      MOSUNNY   72  53  51 CALM      30.00S
DANVILLE       PTSUNNY   74  53  48 E5        29.99S
MARTINSVILLE   CLOUDY    75  57  54 CALM      30.02S
ROANOKE        CLOUDY    69  54  58 CALM      30.01F
BLACKSBURG     MOSUNNY   68  54  60 NW6       30.05R
DUBLIN*        MOSUNNY   70  54  57 N7        30.04S
MARION*        PTSUNNY  N/A N/A N/A NW7       30.08S
HILLSVILLE*    PTSUNNY   65  51  59 NW8       30.05S
RICHLANDS*     PTSUNNY   65  55  70 W3        30.07R
WISE*          PTSUNNY   63  50  63 W3        30.08S
ABINGDON*      PTSUNNY   69  54  58 CALM      30.05S
$$

MDZ021>025-VAZ099-100-291600-
SOUTHERN MARYLAND AND THE DELMARVA PENINSULA

CITY           SKY/WX    TMP DP  RH WIND       PRES   REMARKS
PATUXENT RIVER MOSUNNY   73  56  54 NW10      29.93R
BAY BRIDGE APT   N/A     70  54  56 W7        29.93S
LEONARDTOWN    SUNNY     70  52  52 W7        29.95S
DOVER          SUNNY     72  59  62 NW8       29.90R
GEORGETOWN     SUNNY     72  55  55 VRB7      29.92R
EASTON         PTSUNNY   72  59  64 NW7       29.95S
CAMBRIDGE      MOSUNNY   72  55  56 W8        29.92R
SALISBURY      SUNNY    N/A N/A N/A MISG        N/A
OCEAN CITY     SUNNY     75  57  53 N8        29.91R
WALLOPS ISLAND PTSUNNY   75  60  59 VRB6      29.91S
ACCOMACK*        N/A     73  61  64 N6        29.91S
$$

NCZ012>017-030>032-291600-
EASTERN NORTH CAROLINA

CITY           SKY/WX    TMP DP  RH WIND       PRES   REMARKS
ELIZABETH CITY MOSUNNY   77  65  66 N5        29.92R
AHOSKIE*       SUNNY     73  58  59 N9        29.95R
EDENTON*       SUNNY     75  65  70 N6        29.92S
CURRITUCK*     MOSUNNY   78  62  58 N6        29.92S
KILL DEVIL HLS SUNNY     76  66  70 NW9       29.90R
MANTEO         NOT AVBL
CAPE HATTERAS  PTSUNNY   79  67  66 NE8       29.90R
GOLDSBORO      SUNNY     76  63  65 NE8       29.93R
WASHINGTON     SUNNY     75  62  64 N6        29.93R
GREENVILLE     SUNNY     77  63  61 N7        29.95S
NEW BERN       MOSUNNY   79  64  60 N6        29.92S
WILMINGTON     MOSUNNY   80  64  58 N5        29.91R
$$

VAZ048-291600-
ELSEWHERE

CITY           SKY/WX    TMP DP  RH WIND       PRES   REMARKS
HARRISBURG PA  PTSUNNY   68  56  65 W9        29.92S
BALTIMORE      PTSUNNY   71  53  52 NW7       29.92F
ANNAPOLIS      MOSUNNY   70  55  59 N6        29.92F
ANDREWS AFB    SUNNY     70  49  47 W15       29.93F
WILMINGTON DE  MOSUNNY   72  57  59 NW10      29.92S
PHILADELPHIA   MOSUNNY   72  54  53 NW9       29.90S
WILDWOOD NJ*   SUNNY     72  55  56 W7        29.92R
ATLANTIC CITY  SUNNY     73  57  57 NW7       29.89R
HENDERSON NC   CLOUDY    72  53  52 CALM      29.98R
GREENSBORO     MOSUNNY   75  56  51 N6        29.99R
ROCKY MOUNT    SUNNY     76  58  53 N8        29.95R
FAYETTEVILLE   MOSUNNY   79  60  52 N7        29.94S
CHARLOTTE      SUNNY     77  55  46 N5        29.99S
$$

VAZ100-291600-
MARINE

STATION/POSITION TIME  TEMP    WIND        PRES    WAVE   SWELL
                       AIR SEA DIR/SP/G            HT/PER HT/PER
                 (UTC) (F)     (DEG/KT/KT) (MB)    (FT/S) (FT/S)
44066 TX TWR #4  1500   69 74  310/  8/ 10 1010.9R   4/ 8   3/ 8
CAPE MAY NJ      1500   72 77  310/  8/ 11 1012.3S
LEWES DE         1500   68 72  340/  9/ 11 1012.6S
15NM E FENWICK I 1500   69 73              1012.6R   3/ 4
OCEAN-CITY-INLET 1500   70 69   20/  6/  8 1012.3R
WACHAPREAGUE VA  1500   74 77   20/  2/  7 1012.7F
THOMAS POINT MD  1500   68 77  290/  6/  7 1013.9R
GOOSES REEF MD   1500   69     330/ 10/ 12 1014.0S
COVE POINT MD    1500   69     330/  5/  9 1013.3S
SOLOMONS ISLAND  1500      79                N/A
BISHOPS HEAD MD  1500   70 74  300/ 13/ 16 1012.7S
PINEY POINT MD   1500          330/ 14/ 15   N/A
POTOMAC MD       1500   69     310/ 14/ 17 1012.8F
CAMBRIDGE MD     1500   70 79  290/  9/ 14 1012.9S
LEWISETTA VA     1500   70 77  310/ 11/ 15 1013.4R
RAPPAHANNOCK LGT 1500          330/ 15/ 19 1013.5S
STINGRAY PT      1500   71     340/ 10/ 12 1014.0S
YORK RVR RNG VA  1500   71     350/ 11/ 13 1012.7F
YORKTOWN VA      1500   70 78  310/ 11/ 13 1013.1S
JAMESTOWN VA     1500   70     350/  8/ 12   N/A
DOMINION TERM VA 1500   71     320/  9/ 12 1013.3R
KIPTOPEKE VA     1500      81  340/ 15/ 17   N/A
CHES BAY BRIDGE  1500   72 77  330/ 12/ 14 1012.6R
CAPE HENRY VA    1500   71     340/ 15/ 16 1011.9R
WILLOUBY STN VA  1500          350/  8/  9 1012.5R
S CRANEY ISL VA  1500          320/  6/  9 1013.3R
CAPE HENRY BUOY  1500      77                N/A     2/ 8
1ST LANDING BUOY 1500   72     350/ 12/ 16 1012.8R
CAPE CHARLES BUO 1500      75                N/A     2/ 4
OFFSHORE WE BUOY 1500      78                N/A     3/ 8
64NM E OF VA BCH 1500   74 78   10/  8/ 12 1012.1R   3/ 5   3/ 5
DUCK PIER NC     1500   72 62  340/ 12/ 13 1012.0R
44056 DUCK FRF   1500                        N/A     3/ 4
OREGON INLET NC  1500   77 78   10/  9/ 13 1012.5R
HATTERAS NC      1500   78 80   20/ 11/ 13 1012.7R
DIAMOND SHLS NC  1500          VRB 12/ 16  1011.9R   3/ 6   3/ 6
CAPE LOOKOUT NC  1400   78      20/ 12/ 16 1011.8R
$$



USA.gov is the U.S. government's official web portal to all federal, state and local government web resources and services.